THOR ABLESTAR DEB, 336

Orbit data source: Space-Track

THOR ABLESTAR DEB, 336 is space debris in LEO originally from a launch on Thu, 29 Jun 1961 UTC launched from the Air Force Eastern Test Range (AFETR). Debris objects in space refer to the collection of defunct objects orbiting the Earth. Examples of debris include non-operational satellites, rocket bodies, and fragments generated from explosions, collisions, or faulty payload assembly.

Loading next visibility...
Identifier
336, 1961-015DN
Orbit
LEO
Country
Flag of USUS
Related business
Manufacturer
Unknown
Mission
Spacecraft
Bus & Motor
Unknown
Mass
Unknown
Launch date (UTC)
1961-06-29 (64 years ago)
Launch vehicle
Unknown
Launch site
Air Force Eastern Test Range (AFETR)
Object type
Payload
Rocket body
Debris
Shape & HBR
Unknown shape, 0.1 m
Radar Cross Section
Small (<0.1 m²)

Expand to show TLE details & history
Last TLE update: 15 hours ago

TLE from 15 hours ago
0 THOR ABLESTAR DEB
1 00336U 61015DN  25300.87013029  .00000169  00000-0  27038-3 0  9994
2 00336  67.0325  15.8274 0082908 299.6530 167.4813 13.69132701207399
Epoch: 2025-10-27T20:52Z
TLE epoch observation values (Epoch: 2025-10-27T20:52:59.257Z)
Latitude
61.62038°
Longitude
154.81252°
Altitude
1,072.179 km
Speed
7.292 km/s
True Right ascension
09h 38m 06s
True Declination
61° 28' 57"
Sunlit
Object was in daylight at epoch
Visualization orbit readout
Latitude
Unknown
Longitude
Unknown
Altitude
Unknown
Speed
Unknown
Apparent Right ascension
Unknown
Apparent Declination
Unknown
Sunlit
N/A
Visualization observer readout
Local Sidereal Time
07:33:27
Azimuth
Unknown
Elevation
Unknown
Doppler factor
Unknown
Orbital elements
Apogee altitude
1,062.25 km
Perigee altitude
939.891 km
Semi-major axis
7,379.207 km
Eccentricity
0.00829
Inclination
67.0325°
RAAN
15.8274°
Arg. of periapsis
299.653°
True anomaly
167.68517°
Mean anomaly
167.4813°
Eccentric anomaly
167.58344°
Mean motion
3.42396 °/min
Orbital period
105.14 mins
BSTAR
0.00027038

Documentation

Showing up to 5 results
|